www.pogodaiklimat.ru

Погода и климат >> Архив погоды >> Китай >> Ляонин >> Чаоян


ПОГОДА в Чаояне

  • Прогноз погоды в Чаояне
  • Монитор погоды в Чаояне

АРХИВ ПОГОДЫ в Чаояне

Время (UTC), дата Ветер
(напр.,м/с)
 
Видим.   Явления Облачность Т
(С)
Тd
(С)
f
(%)
Тe
(С)
Тes
(С)
Комфортность P
(гПа)
Po
(гПа)
Тmin
(С)
Tmax
(С)
R
(мм)
R24
(мм)
S
(см)
18 16.09 Ю 2 30 км ?/? +6.9 +5.1 88 +5 +5 1018.1 996.5 +23.0
21 16.09 Ю 1 30 км н/о +6.5 +4.7 88 +5 +5 1017.3 995.7
00 17.09 Ю 3 30 км 6/6
[]
+12.1 +7.4 73 +11 +12 1016.7 995.5
03 17.09 Ю 3 30 км 8/8
[]
+22.0 +10.5 48 +24 +26 комфорт 1014.0 993.5
06 17.09 Ю 4 30 км 8/8
[]
+28.5 +10.2 32 +29 +30 жарко 1010.6 990.6 +6.0
09 17.09 С 8 30 км 3/3 1000 м
[]
+27.5 +1.1 18 +25 +26 комфорт 1012.3 992.2
12 17.09 С 4 30 км 5/5
[]
+18.7 -1.2 26 +19 +19 1019.2 998.4
18 17.09 С 2 30 км ?/? +10.8 -5.2 32 +10 +10 1025.5 1004.0 +31.0
21 17.09 СЗ 1 30 км н/о +8.2 -3.0 45 +8 +8 1026.4 1004.7
00 18.09 Ю 2 30 км ясно +12.2 -1.7 38 +12 +15 1028.0 1006.6
03 18.09 С 2 30 км ясно +19.0 -3.2 22 +20 +31 1026.7 1005.8
06 18.09 З 3 30 км ясно +22.0 -5.0 16 +21 +28 комфорт 1023.8 1003.1 +4.6
09 18.09 Ю 1 30 км ясно +22.7 +0.5 23 +22 +23 комфорт 1022.0 1001.4
12 18.09 ЮЗ 2 30 км ясно +15.9 +0.9 36 +16 +16 1022.5 1001.4
18 18.09 Ю 2 30 км ?/? +9.7 +4.1 68 +8 +8 1021.8 1000.3 +23.7
21 18.09 Ю 2 30 км н/о +8.7 +4.3 74 +7 +7 1021.6 1000.0
00 19.09 Ю 3 30 км 8/8
[]
+13.4 +5.3 58 +12 +13 1021.3 1000.1
03 19.09 Ю 3 30 км 9/9
[]
+19.1 +7.2 46 +20 +21 1020.1 999.3
06 19.09 ЮЗ 3 30 км 9/9
[]
+23.7 +8.6 38 +24 +25 комфорт 1017.1 996.7 +8.1
09 19.09 Ю 2 30 км 9/9
[]
+23.2 +8.5 39 +24 +25 комфорт 1015.6 995.2
12 19.09 Ю 3 30 км 9/9
[]
+19.5 +8.8 50 +21 +21 комфорт 1015.9 995.2
18 19.09 Ю 3 30 км ?/? +12.6 +10.3 86 +11 +11 1015.3 994.7 +25.1
21 19.09 Ю 3 11 км н/о +11.0 +9.6 91 +9 +9 1015.9 994.6
00 20.09 штиль 0 30 км 3/3
[]
+14.5 +10.1 75 +14 +17 1017.8 996.7
03 20.09 В 2 30 км ясно +23.8 +9.4 40 +25 +36 комфорт 1017.3 996.9
06 20.09 В 2 30 км 8/8
[]
+28.8 +6.2 24 +28 +29 жарко 1015.6 995.6 +9.7
09 20.09 В 3 30 км ясно +26.7 +7.2 29 +26 +27 жарко 1016.3 996.1
12 20.09 Ю 1 30 км 6/6
[]
+18.0 +8.8 55 +19 +19 1018.7 997.9
18 20.09 С 3 23 км ?/? +12.9 +11.5 91 +11 +11 1020.9 999.7 +29.0
21 20.09 Ю 2 19 км н/о +10.8 +9.6 92 +9 +9 1022.4 1001.0
00 21.09 ЮВ 1 30 км ясно +16.4 +11.8 74 +17 +21 1024.2 1003.1
03 21.09 В 5 30 км ясно +23.8 +6.6 33 +24 +30 комфорт 1023.9 1003.4
06 21.09 СВ 2 30 км ясно +26.3 +5.3 26 +26 +34 жарко 1022.6 1002.3 +10.2
09 21.09 В 2 30 км ясно +24.2 +6.0 31 +24 +25 комфорт 1022.6 1002.1
12 21.09 З 1 30 км ясно +16.9 +7.5 54 +18 +18 1024.2 1003.2
18 21.09 Ю 2 30 км ?/? +8.1 +6.6 90 +6 +6 1025.1 1003.4 +26.6
21 21.09 Ю 2 30 км н/о +6.3 +5.3 93 +4 +4 1025.1 1003.3
00 22.09 В 1 30 км ясно +13.3 +7.3 67 +14 +17 1025.8 1004.5
03 22.09 В 3 30 км ясно +23.6 +5.0 30 +23 +33 комфорт 1024.3 1003.7
06 22.09 В 4 30 км ясно +26.0 +3.3 23 +25 +31 комфорт 1021.5 1001.2 +6.3
09 22.09 В 3 30 км ясно +24.4 +4.7 28 +24 +24 комфорт 1020.6 1000.2
12 22.09 Ю 2 30 км ясно +15.2 +7.5 60 +15 +15 1021.0 999.9
18 22.09 Ю 2 30 км ?/? +8.1 +6.2 88 +6 +6 1019.9 998.3 +27.0
21 22.09 Ю 2 30 км н/о +8.2 +5.7 84 +6 +6 1020.0 998.4
00 23.09 Ю 3 30 км ясно +13.6 +6.9 64 +13 +15 1020.3 999.1
03 23.09 ЮЗ 1 30 км ясно +24.2 +6.5 32 +24 +37 комфорт 1018.6 998.2
06 23.09 Ю 3 30 км ясно +29.1 +5.9 23 +28 +35 жарко 1015.8 995.8 +7.7
09 23.09 Ю 3 30 км ясно +28.2 +7.4 27 +28 +28 жарко 1015.2 995.1
12 23.09 В 1 30 км ясно +21.5 +9.1 45 +23 +23 комфорт 1016.8 996.3

 

Местоположение метеостанции Чаоян (Ляонин, Китай): широта 41.55 долгота 120.45 высота над уровнем моря 176 м.

В архиве по умолчанию представлена погода в Чаояне за последнюю неделю. Архивные данные за месяц целиком и за предыдущие месяцы, начиная с января 2011 года, Вы можете получить, выбрав интересующий диапазон дат из раскрывающегося списка и нажав кнопку "Ввод!".


*Определитесь, кто Вы:
робот инопланетянин человек

Внимание! Время в таблицах - всемирное. Для получения местного времени необходимо прибавить поправку, которая равна 8 ч.

Смотрите также архив погоды в соседних городах и на ближайших метеорологических станциях:

Погода в Цзиньчжоу (Ляонин, Китай) (72 км)
Погода в Дабейва (Внутренняя Монголия, Китай) (89 км)
Погода в Чифэне (Внутренняя Монголия, Китай) (147 км)
Погода в Инкоу (Ляонин, Китай) (176 км)
Погода в Цинлуне (Хэбэй, Китай) (180 км)
Погода в Чжанъу (Ганьсу, Китай) (197 км)
Погода в Чэндэ (Хэбэй, Китай) (218 км)
Погода в Вэйчане (Хэбэй, Китай) (228 км)
Погода в Шэньяне (Ляонин, Китай) (255 км)
Погода в Лаотине (Хэбэй, Китай) (270 км)

Пояснения к столбцам:

Ветер - указаны скорость ветра в м/с - средняя за 10 мин, порывы в срок и между сроками (в фигурных скобках) и направление, откуда дует ветер: С - северный, СВ - северо-восточный, В - восточный, ЮВ - юго-восточный, Ю - южный, ЮЗ - юго-западный, З - западный, СЗ - северо-западный.
Видимость - горизонтальная дальность видимости в метрах или километрах. При видимости от 1 до 10 км при отсутствии осадков обычно наблюдается дымка, при ухудшении видимости до 1 км и менее - туман. В сухую погоду видимость может ухудшаться дымом, пылью или мглою.
Явления - указаны атмосферные явления, наблюдавшиеся в срок или в последний час перед сроком; фигурными скобками обозначены явления, наблюдавшиеся между сроками (за 1-3 часа до срока); квадратными скобками обозначены град или гололедные отложения с указанием их диаметра в мм.
Облачность - указаны через наклонную черту общая и нижняя облачность в баллах и высота нижней границы облаков в метрах; квадратными скобками обозначены формы облаков: Ci - перистые, Cs - перисто-слоистые, Cc - перисто-кучевые, Ac - высококучевые, As - высокослоистые, Sc - слоисто-кучевые, Ns - слоисто-дождевые, Cu - кучевые, Cb - кучево-дождевые. Подробнее классификацию облаков см. в Атласе облаков (PDF).
T - Температура воздуха - температура, измеренная на высоте 2 м над землей.
Td - Температура точки росы - температура, при понижении до которой содержащийся в воздухе водяной пар достигнет насыщения.
f - Относительная влажность воздуха - влажноcть воздуха, измеренная на высоте 2 м над землей.
Te - Эффективная температура - температура, которую ощущает одетый по сезону человек в тени. Характеристика душности погоды. При расчете учитывается влияние влажности воздуха и скорости ветра на теплоощущения человека.
Tes - Эффективная температура на солнце - температура, которую ощущает человек, с поправкой на солнечный нагрев. Характеристика знойности погоды. Зависит от высоты солнца над горизонтом, облачности и скорости ветра. Ночью, в пасмурную погоду, а также при ветре 12 м/с и более поправка равна нулю.
P - Атмосферное давление - приведенное к уровню моря атмосферное давление.
Po - Атмосферное давление - измеренное на уровне метеостанции атмосферное давление.
Tmin - Минимальная температура - минимум температуры воздуха на высоте 2 м над землей.
Tmax - Максимальная температура - максимум температуры воздуха на высоте 2 м над землей.
R - Количество осадков - Количество выпавших осадков за период времени, мм. При наведении курсора мыши на число - период времени, за который выпало указанное количество осадков.
R24 - Количество осадков - Количество выпавших осадков за 24 часа, мм.
S - Снежный покров - Высота снежного покрова, см. При наведении курсора мыши на число - состояние снежного покрова и степень покрытия местности в баллах.